User: anonymous   Login
Location: Unspecified
(0.0000°N, 0.0000°E)
Time: 05:32:08
(UTC+00:00)
Language:

FO-29 - Orbit

View from above orbital plane
View from above orbital plane
View from above satellite
View from above satellite

Ground track
Ground track

The orbit data is extracted from the following two-line orbital elements,

1 24278U 96046B   18018.56607771 +.00000001 +00000-0 +34666-4 0  9995
2 24278 098.5308 237.8161 0351069 138.9577 223.8553 13.53080567057750
Epoch (UTC): 18 January 2018 13:35:09
Eccentricity: 0.0351069
inclination: 98.5308°
perigee height: 800 km
apogee height: 1322 km
right ascension of ascending node: 237.8161°
argument of perigee: 138.9577°
revolutions per day: 13.53080567
mean anomaly at epoch: 223.8553°
orbit number at epoch: 5775

The dashed part of the orbit path shows where the satellite is in the earth's shadow,  

DLR